User: anonymous   Login
Location: Unspecified
(0.0000°N, 0.0000°E)
Time: 10:18:25
(UTC+00:00)
Language:

Kosmos-2154 - Orbit

View from above orbital plane
View from above orbital plane
View from above satellite
View from above satellite

Ground track
Ground track

The orbit data is extracted from the following two-line orbital elements,

1 21666U 91059A   17294.96524909 +.00000017 +00000-0 +20477-5 0  9995
2 21666 082.9032 295.8221 0025002 000.2179 059.7798 13.73304954311069
Epoch (UTC): 21 October 2017 23:09:57
Eccentricity: 0.0025002
inclination: 82.9032°
perigee height: 969 km
apogee height: 1006 km
right ascension of ascending node: 295.8221°
argument of perigee: 0.2179°
revolutions per day: 13.73304954
mean anomaly at epoch: 59.7798°
orbit number at epoch: 31106

The dashed part of the orbit path shows where the satellite is in the earth's shadow,  

DLR